Probability
1 1 2 1 0 0 1 3 3 3 3 3 3 3 3 3 3 4 5 7 5 2 0 0 1 3 4 5 5 4 2 2 2 2 1 0 0 0 0 0 0 0 0
1 1 2 1 0 1 2 3 3 2 2 2 2 2 2 2 3 3 5 6 4 2 1 1 1 2 3 3 3 3 3 3 3 3 2 1 0 0 0 0 0 0 0
1 1 1 1 0 1 3 3 3 1 1 1 1 1 1 1 2 3 4 4 3 3 2 1 1 1 1 1 1 3 3 3 3 3 2 1 0 0 0 0 0 0 0
1 2 2 1 0 0 2 3 2 1 0 1 0 0 0 1 2 3 3 3 3 3 2 1 0 0 0 0 1 2 3 3 3 1 1 0 0 0 0 0 0 0 0
1 2 2 2 1 0 1 2 2 1 0 0 0 0 0 1 3 4 4 5 5 4 3 2 1 1 0 1 2 3 3 3 2 1 0 0 0 0 0 0 0 0 0
0 1 2 3 3 2 2 1 1 0 0 0 0 0 0 2 3 5 5 6 5 5 6 6 5 3 2 2 3 5 5 3 1 0 0 0 0 0 0 0 0 0 0
0 0 2 4 4 4 3 1 1 0 0 0 0 0 0 2 3 4 5 6 7 7 8 8 8 6 5 4 4 6 6 3 1 0 0 0 0 0 0 0 0 0 0
0 0 1 3 4 4 4 3 2 1 0 0 1 1 1 3 4 5 6 6 7 8 8 8 9 8 6 5 5 6 6 3 1 0 0 0 0 1 1 1 0 0 1
0 0 0 1 3 4 4 4 3 3 1 1 2 2 3 4 5 6 6 6 7 8 8 8 8 7 5 5 5 6 5 3 1 0 0 1 1 2 3 2 1 1 2
1 0 0 1 2 3 4 3 4 4 3 2 2 3 3 4 4 5 5 6 8 8 7 6 6 5 4 4 4 5 4 2 0 0 0 1 2 4 5 4 2 3 3
1 1 0 0 1 2 2 2 3 3 2 1 2 2 3 3 3 4 4 5 7 7 5 4 4 3 3 3 4 4 4 2 1 1 1 1 2 4 5 4 4 3 3
1 1 1 0 0 1 1 1 1 1 1 1 1 1 2 3 3 3 3 4 5 5 5 4 3 3 3 4 4 4 4 3 2 2 2 2 3 3 4 6 6 5 4
0 0 0 0 0 0 0 0 0 0 0 0 0 0 1 2 1 1 2 2 3 4 4 3 2 2 2 3 3 3 3 3 2 2 3 3 4 5 7 9 9 6 5
2 2 1 1 1 1 1 1 0 0 0 0 0 0 0 1 1 0 1 1 1 2 2 1 1 1 1 1 1 1 1 1 1 1 1 3 5 8 10 11 9 6 4
6 5 3 2 3 2 2 2 1 0 0 1 1 0 0 1 1 0 0 0 0 1 1 0 0 0 0 0 0 0 0 0 1 0 1 2 5 9 12 12 8 5 3
7 5 3 3 2 1 1 1 0 0 0 1 1 1 1 1 0 0 0 0 1 1 1 0 0 0 0 0 0 0 0 0 0 0 0 1 4 7 10 11 10 7 5
5 4 4 5 3 1 1 0 0 0 0 0 0 0 0 0 0 0 0 0 1 2 2 1 0 0 0 0 0 0 0 0 0 0 0 1 3 5 7 10 10 9 8
5 4 5 6 4 3 2 2 1 1 0 1 1 0 0 0 0 0 0 0 1 2 2 1 0 0 0 0 0 0 0 0 0 0 0 1 2 3 5 7 8 8 7
8 6 6 6 4 3 4 4 3 1 1 1 1 0 0 0 0 0 0 0 0 1 1 1 0 0 0 0 0 0 0 0 0 0 0 0 1 1 2 3 6 7 7
10 9 7 6 5 5 6 6 5 2 1 1 1 0 0 0 0 0 0 0 0 0 0 0 0 0 1 0 0 0 0 0 0 0 0 0 0 0 0 1 2 5 7
13 12 10 8 7 7 8 8 6 3 1 0 0 0 0 0 0 0 0 0 0 0 0 0 0 0 0 0 0 0 0 0 0 0 0 0 0 0 0 0 0 2 3
15 14 13 10 8 8 8 8 6 3 1 1 0 0 0 0 0 0 0 0 0 0 0 0 0 0 0 0 0 0 0 0 0 0 0 0 0 0 0 0 0 0 1
16 15 14 11 8 7 6 5 4 3 2 2 1 0 0 0 0 0 0 0 0 0 0 0 0 0 0 0 0 0 0 0 0 0 0 0 0 0 0 0 0 0 0
17 16 14 11 8 6 4 4 3 3 2 2 1 0 0 0 0 0 0 0 0 0 0 0 0 0 0 0 0 0 0 0 0 0 0 0 0 0 0 0 0 0 0
19 19 18 15 11 8 6 5 4 3 1 1 0 0 0 0 0 0 0 0 0 1 1 1 1 1 1 0 0 0 0 0 0 0 0 0 0 0 0 0 0 0 0
18 20 20 18 14 10 8 7 5 3 1 0 0 0 0 0 0 0 0 0 1 2 2 2 2 2 2 1 0 0 0 0 1 1 1 0 0 0 0 0 0 0 0
Wind_Speed
4 5 11 11 11 11 10 10 9 10 10 11 11 11 12 12 12 12 12 12 12 12 11 11 10 10 9 9 9 9 9 9 9 9 8 8 9 9 9 9 8 6 10
7 7 12 12 11 11 10 10 10 10 10 10 10 10 11 11 11 11 12 12 11 11 11 10 10 9 9 8 8 8 8 7 8 8 7 7 7 7 7 8 8 6 10
9 7 10 12 12 11 11 10 10 10 10 10 10 10 10 11 11 11 11 11 11 10 10 10 9 8 8 8 7 6 6 6 6 7 6 3 4 6 7 8 9 9 9
9 7 8 12 12 11 11 10 10 10 10 10 9 9 9 10 10 10 10 10 10 10 9 9 8 8 7 7 6 6 5 5 5 5 3 3 3 6 7 8 8 9 9
8 7 8 13 11 11 10 10 10 10 9 9 8 8 9 9 10 10 9 9 10 9 8 8 7 7 7 7 6 5 4 4 5 4 2 3 3 6 8 8 8 9 9
8 7 8 12 11 10 10 9 9 9 8 8 7 7 8 8 9 9 9 9 9 9 8 7 7 7 7 6 6 5 5 4 3 2 3 3 3 7 8 8 8 8 9
8 6 7 11 10 9 9 9 8 8 7 7 7 7 7 8 8 8 8 8 8 8 8 7 7 7 7 6 6 6 5 4 2 2 3 3 4 7 9 9 9 9 9
9 6 7 10 10 9 8 8 8 7 6 6 6 6 7 7 7 7 8 8 8 8 7 7 7 7 7 7 6 6 5 4 3 2 2 3 6 9 10 10 9 9 9
8 6 5 5 6 8 8 7 7 7 5 5 6 6 6 6 6 7 8 8 8 8 8 8 8 8 8 7 7 7 6 5 2 2 3 3 7 10 10 10 10 9 10
6 5 4 3 3 3 4 6 6 6 5 4 5 5 5 5 5 7 7 7 9 9 9 9 9 8 8 7 7 6 5 3 2 2 2 4 8 10 11 11 11 11 10
6 4 3 3 2 2 2 4 4 5 4 3 2 3 3 1 1 3 5 7 8 9 9 9 9 8 7 7 7 6 4 1 2 2 2 6 9 11 11 11 12 11 11
5 3 3 3 2 2 2 2 1 1 1 1 0 1 1 1 1 2 4 6 7 7 8 9 9 7 5 3 5 6 2 2 2 3 4 7 9 10 11 12 12 12 12
6 4 3 3 2 2 1 1 1 0 0 0 0 0 0 0 0 1 1 2 2 4 3 4 4 3 3 3 2 2 2 2 2 3 4 8 9 10 11 12 12 12 12
6 5 3 3 3 2 2 1 1 1 1 0 1 1 1 0 0 1 1 1 1 1 1 1 1 2 3 3 3 3 3 2 3 2 4 9 10 11 11 12 12 12 12
6 4 3 3 3 2 2 1 2 1 1 1 0 0 1 1 0 0 0 0 1 1 1 1 1 1 2 2 3 3 3 3 3 3 3 7 8 9 10 11 11 11 11
5 4 3 3 3 2 2 1 1 2 2 1 0 0 0 1 0 0 0 0 0 1 1 1 1 1 1 1 2 3 3 3 3 3 3 4 7 8 9 10 10 10 11
5 3 3 4 3 2 2 1 2 2 2 1 1 0 1 1 0 1 0 0 0 0 0 1 0 0 0 0 1 2 2 3 3 3 3 2 3 6 8 8 9 10 10
5 4 3 3 3 2 1 1 1 1 2 1 1 1 1 1 1 1 1 0 0 0 1 1 1 0 1 1 1 1 1 1 2 3 2 2 2 3 4 6 7 8 9
6 5 3 2 2 2 1 1 1 2 2 1 1 1 1 1 1 1 1 0 0 1 1 1 1 1 0 1 1 1 1 1 2 2 2 3 3 3 2 5 7 7 7
5 4 3 2 2 1 1 2 2 2 2 1 1 1 1 1 1 1 1 1 1 1 1 1 1 0 0 1 1 1 1 1 1 2 2 2 2 3 3 3 3 4 6
4 4 3 2 1 1 1 1 1 1 1 1 1 1 1 1 1 1 1 1 1 1 1 1 1 0 0 0 1 1 2 1 1 1 1 1 2 3 3 3 2 2 3
5 4 3 2 1 1 1 1 1 1 0 0 1 1 1 1 1 1 2 1 1 1 1 1 1 1 0 1 1 1 2 3 2 1 1 2 2 2 2 4 3 3 3
5 5 4 2 2 1 2 2 2 2 2 2 1 1 1 1 1 1 1 1 1 1 1 1 1 2 0 1 1 2 2 2 2 2 1 1 1 2 2 2 4 4 4
5 4 4 3 2 2 2 3 3 2 1 1 1 1 1 1 1 2 1 2 1 1 1 1 1 1 1 0 1 1 2 2 1 2 2 1 1 2 3 3 3 3 3
6 5 4 3 3 3 3 3 3 2 1 0 1 1 1 1 1 1 1 1 1 1 1 0 1 1 1 1 1 1 1 0 1 1 2 3 2 2 2 3 2 2 3
5 5 5 4 3 3 3 3 3 2 2 1 1 1 1 1 1 1 1 1 1 0 0 1 1 1 1 1 0 0 1 1 1 1 2 2 2 2 2 2 2 2 2
Wind_Direction
155 159 142 132 127 123 119 116 113 108 109 111 111 113 118 121 124 127 130 133 135 137 137 137 136 134 130 126 123 124 125 125 127 129 127 125 124 125 126 127 125 122 124
153 157 144 137 132 126 122 119 116 114 114 116 117 118 123 126 128 130 133 136 139 140 141 140 141 141 137 133 132 132 132 134 133 134 132 128 129 131 133 131 131 129 129
143 150 145 140 134 129 125 121 117 118 118 117 120 121 126 131 132 132 134 138 142 144 143 143 143 144 141 137 139 140 139 140 140 141 139 133 139 140 138 134 134 135 134
138 139 140 137 134 131 128 125 123 121 118 118 121 125 129 134 136 138 139 141 145 146 146 146 146 147 148 149 153 155 153 158 156 153 148 161 161 151 148 142 142 144 143
130 134 140 136 132 128 125 124 125 124 123 126 127 129 135 137 143 146 147 148 150 150 152 153 154 157 162 167 172 177 179 176 172 161 151 163 165 159 157 153 151 153 153
129 134 140 134 134 131 129 128 129 128 129 133 135 136 140 144 148 151 156 158 158 158 158 161 165 169 174 180 187 190 195 188 172 155 161 169 174 172 167 165 163 163 162
130 136 138 134 135 134 136 136 134 134 136 138 141 145 150 154 159 161 166 168 168 168 169 170 174 180 180 185 193 196 199 188 174 169 173 178 182 178 174 174 174 173 169
133 134 137 141 140 139 140 142 142 142 145 148 152 153 156 162 166 170 174 177 177 178 180 184 188 193 193 194 200 203 201 205 193 189 184 183 187 183 181 180 178 177 178
130 132 133 141 146 150 148 147 148 149 155 157 158 158 162 168 177 179 183 189 189 190 191 195 200 203 204 205 207 209 205 208 201 195 203 193 193 190 189 185 184 185 187
120 123 128 130 135 148 161 160 158 156 156 157 160 165 168 177 187 192 195 199 201 200 200 205 207 210 211 213 211 211 213 212 204 203 207 204 202 198 198 193 190 191 189
115 119 133 135 139 147 159 166 166 166 167 171 168 170 171 189 201 202 206 208 209 208 209 213 213 213 215 213 213 217 225 206 190 211 209 210 205 203 204 198 195 193 193
129 142 148 157 162 163 171 158 167 169 167 177 185 215 177 173 209 212 218 215 216 219 221 222 221 220 218 208 218 225 219 204 208 218 216 212 210 208 208 203 199 197 195
147 152 158 156 155 160 161 149 152 130 122 181 211 186 120 121 268 263 235 246 236 231 233 232 232 221 206 202 209 213 215 215 214 224 222 216 213 214 214 207 202 200 198
135 142 145 140 130 140 130 140 147 131 131 170 227 176 114 94 255 244 211 228 236 232 219 228 223 212 202 203 206 207 213 215 212 217 222 219 219 217 214 209 206 206 206
127 134 142 133 125 125 115 111 116 127 146 175 181 123 125 128 153 217 238 218 220 194 192 210 221 196 194 199 201 197 208 213 218 216 226 218 212 209 206 205 206 208 209
130 135 135 126 124 116 114 109 108 125 122 124 113 37 114 124 128 137 297 322 266 216 203 180 176 187 195 202 211 207 212 213 214 217 221 222 210 206 204 206 210 211 214
135 128 124 128 117 116 115 115 104 119 118 114 122 107 83 93 126 148 84 46 290 303 130 113 104 82 155 246 239 234 221 216 211 209 212 217 220 216 210 208 211 213 217
133 122 116 122 113 110 99 96 94 98 107 113 119 75 50 42 64 108 89 10 291 68 93 111 98 75 334 303 265 253 244 235 228 213 209 207 209 217 217 211 213 215 217
137 132 125 116 117 117 96 89 90 87 89 98 98 87 57 61 67 116 118 86 72 71 77 113 103 147 251 301 271 252 248 241 242 225 211 208 209 208 209 214 214 216 222
137 135 132 119 119 124 91 70 59 56 54 66 78 87 77 69 86 110 126 104 94 89 70 71 135 149 199 250 258 266 267 240 229 224 222 209 213 214 211 214 220 222 220
133 127 129 130 136 114 92 88 78 48 28 38 39 47 64 57 65 100 89 89 96 105 118 106 126 75 315 53 65 353 330 290 249 230 208 193 215 220 207 206 208 210 221
144 145 138 141 144 150 156 155 141 144 125 65 347 11 32 40 62 107 110 103 103 115 86 82 104 90 282 105 122 90 345 331 315 264 218 196 206 203 204 205 203 209 217
158 163 158 159 144 134 128 106 86 60 37 26 11 1 340 354 57 78 112 127 117 127 147 161 131 132 191 291 137 133 155 243 300 312 260 233 213 205 219 208 206 210 208
171 167 159 154 139 118 110 110 118 109 106 257 264 319 332 358 58 76 81 103 116 112 130 167 132 143 140 218 297 209 195 178 172 310 323 302 266 229 228 221 215 215 213
170 166 162 148 144 136 128 130 122 111 124 346 17 33 358 351 26 66 83 86 91 105 138 159 106 120 147 168 201 239 248 229 162 169 278 308 312 273 245 231 214 216 219
163 163 156 147 152 148 133 129 131 130 119 87 30 26 359 354 360 16 75 84 102 111 146 206 148 144 164 158 170 159 164 178 221 186 223 270 289 290 281 251 219 221 221